Regional Weather Roundup
Issued by NWS

Home | Current Version | Previous Version | Text Only | Print | Product List | Glossary On
Versions: 1 2 3 4 5 6 7 8 9 10 11 12 13 14 15 16 17 18 19 20 21 22 23 24 25 26 27 28 29 30 31 32 33 34 35 36 37 38 39 40 41 42 43 44 45 46 47 48 49 50
000
ASUS44 KLIX 031711
RWRLA
LOUISIANA WEATHER ROUNDUP
NATIONAL WEATHER SERVICE NEW ORLEANS LA
1200 PM CDT FRI JUL 03 2015

NOTE: "FAIR" INDICATES FEW OR NO CLOUDS BELOW 12,000 FEET WITH NO
      SIGNIFICANT WEATHER AND/OR OBSTRUCTIONS TO VISIBILITY.
      SKY/WX - SKY CONDITION AND SIGNIFICANT WEATHER.
      TMP - AIR TEMPERATURE.    DP   - DEWPOINT TEMPERATURE.
      RH  - RELATIVE HUMIDITY.  PRES - PRESSURE.
      HX  - HEAT INDEX.         WCI  - WIND CHILL INDEX.

*  THESE STATIONS ARE NOT NWS OR FAA STATIONS AND ARE NOT UNDER
   NWS QUALITY CONTROL.

LAZ040-048-061>063-065-066-069-031800-
SOUTHEAST LOUISIANA

CITY           SKY/WX    TMP DP  RH WIND       PRES   REMARKS
N.O. AUDUBON     N/A     93  79  63 MISG        N/A  HX 109
N.O. INTL ARPT PTSUNNY   91  72  53 VRB7      30.05S HX  98
N.O. LAKEFRONT MOSUNNY   92  75  57 N6        30.06S HX 103
N.O. DOWNTOWN* FAIR      91  73  55 SW7       30.06S HX 100
RESERVE*       FAIR      90  74  59 W9        30.06R HX  99
SLIDELL        MOSUNNY   89  76  65 MISG      30.05S HX 100
BATON ROUGE    MOSUNNY   89  74  60 W7        30.05S HX  98
BOOTHVILLE     PTSUNNY   87  76  69 SW10      30.08R HX  97
BELLE CHASSE   MOSUNNY   88  73  61 SW8       30.06R HX  95
BOGALUSA*        N/A     90  73  57 SW5       30.07S HX  97
GALLIANO*      MOSUNNY   91  75  60 SW12      30.07S HX 101
NEW ROADS*     FAIR     N/A N/A N/A S8        30.05S
GONZALES*      FAIR      89  73  60 SW8       30.05R HX  97
HAMMOND*       MOSUNNY   91  70  49 SW7       30.06F HX  97
HOUMA*         MOSUNNY   90  72  55 SW8       30.06R HX  96
PORT FOURCHON* MOSUNNY   86  75  70 S12       30.09R HX  95

$$

LAZ041-044-053-054-031800-
SOUTHWEST LOUISIANA

CITY           SKY/WX    TMP DP  RH WIND       PRES   REMARKS
LAKE CHARLES   MOSUNNY   89  73  59 SW10      30.03R HX  97
LAFAYETTE      PTSUNNY   90  71  53 S7        30.04S HX  96
PATTERSON      PTSUNNY   88  73  62 W8        30.07R HX  96
SALT POINT       N/A     88  78  72 VRB5      30.05R HX 101
NEW IBERIA     MOSUNNY   90  75  62 SW6         N/A  HX 100
CHENAULT AIRPK PTSUNNY   90  73  58 SW12      30.03R HX  98

$$

LAZ027-028-031800-
CENTRAL LOUISIANA

CITY           SKY/WX    TMP DP  RH WIND       PRES   REMARKS
FORT POLK      PTSUNNY   87  73  61 S12       30.02S
ALEXANDRIA INT PTSUNNY   88  75  65 SW9       30.01R HX  97
ALEXANDRIA     PTSUNNY   91  74  57 SW9       30.02S HX 100

$$

LAZ001-002-031800-
NORTHWEST LOUISIANA

CITY           SKY/WX    TMP DP  RH WIND       PRES   REMARKS
SHREVEPORT     CLOUDY    87  74  64 SW10      29.99S HX  95
BARKSDALE AFB  PTSUNNY   86  72  62 SW10      29.99R
DTN SHREVEPORT PTSUNNY   86  73  65 SW12      29.99S

$$

LAZ014-016-031800-
NORTHEAST LOUISIANA

CITY           SKY/WX    TMP DP  RH WIND       PRES   REMARKS
MONROE         CLOUDY    86  75  69 SW14      30.01S HX  95
TALLULAH       CLOUDY    86  74  67 SW7       30.01F

$$



USA.gov is the U.S. government's official web portal to all federal, state and local government web resources and services.